Preview of NWS' New Version of Forecast
This preview is not operational and should not be used for support decisions.

Regional Weather Roundup (RWR)

Issued by National Weather Service (NWS)

                            
000
ASUS45 KABQ 200201
RWRNM 
NEW MEXICO REGIONAL WEATHER ROUNDUP
NATIONAL WEATHER SERVICE ALBUQUERQUE NM
800 PM MDT MON AUG 19 2019

NOTE: "FAIR" MEANS FEW OR NO CLOUDS BELOW 12,000 FEET AGL WITH NO
       SIGNIFICANT WEATHER OR OBSTRUCTIONS TO VISION.

      THIS PRODUCT IS RELEASED AS TWO VERSIONS.  ONE VERSION NEAR
      THE TOP OF THE HOUR CONTAINING PRELIMINARY DATA FROM ALBUQUERQUE
      AND OTHER STATIONS.  A FINAL VERSION WITH ADDITIONAL DATA IS 
      ISSUED ABOUT 10 MINUTES AFTER THE HOUR.
 
NMZ501-503-504-510>518-200300-
NORTHWEST PLATEAU/NORTHCENTRAL MOUNTAINS
  
CITY           SKY/WX    TMP DP  RH WIND       PRES   REMARKS
FARMINGTON     FAIR      87  24  10 NW5       30.09S                  
LOS ALAMOS       N/A     81  28  14 SW7       30.25S                  
SANTA FE       FAIR      84  34  16 SW6       30.17R                  
TAOS             N/A     79  32  18 SW7       30.24R                  
ANGEL FIRE     FAIR      67  37  33 S8        30.37S                  

$$
NMZ402-403-502-505>509-200300-
WESTCENTRAL MOUNTAINS/SOUTHWEST MOUNTAINS
  
CITY           SKY/WX    TMP DP  RH WIND       PRES   REMARKS
GALLUP         FAIR      84  22  10 SW10      30.20R                  
GRANTS         FAIR      82  26  13 W3        30.20R                  
SILVER CITY    FAIR      88  36  16 NW7       30.12R                  

$$
NMZ407-409-411-412-200300-
SOUTHERN DESERTS
  
CITY           SKY/WX    TMP DP  RH WIND       PRES   REMARKS
DEMING         FAIR      92  38  15 S6        30.02R                  
LAS CRUCES     FAIR      90  41  18 E5        30.06R                  
ALAMOGORDO     FAIR      90  46  22 N5        30.05R                  
T OR C         FAIR      91  44  19 SE12      30.07R                  

$$
NMZ519>523-200300-
CENTRAL VALLEYS/CENTRAL HIGHLANDS
  
CITY           SKY/WX    TMP DP  RH WIND       PRES   REMARKS
ALBUQUERQUE    FAIR      90  39  16 S14       30.09R                  
DOUBLE EAGLE   PTCLDY    81  36  19 S7        30.13R                  
CLINES CORNERS FAIR      75  40  28 S13       30.28R                  
BELEN          FAIR      89  34  14 S16       30.09R                  
SOCORRO        FAIR      87  38  17 S10       30.08S                  

$$
NMZ524>526-539-540-200300-
SOUTHCENTRAL MOUNTAINS
  
CITY           SKY/WX    TMP DP  RH WIND       PRES   REMARKS
RUIDOSO        CLOUDY    66  57  72 S8        30.31R                  

$$
NMZ527>531-200300-
NORTHEAST HIGHLANDS/NORTHEAST PLAINS
  
CITY           SKY/WX    TMP DP  RH WIND       PRES   REMARKS
LAS VEGAS      FAIR      74  42  31 S12       30.25R                  
RATON          FAIR      80  42  25 S16       30.17R                  
CLAYTON        FAIR      80  48  32 S14       30.09R                  

$$
NMZ532>537-200300-
EASTCENTRAL PLAINS
  
CITY           SKY/WX    TMP DP  RH WIND       PRES   REMARKS
TUCUMCARI      FAIR      84  50  30 S7        30.03R                  
CANNON AFB     NOT AVBL                                               
CLOVIS AIRPORT FAIR      80  56  43 SE3       30.09S                  

$$
NMZ028-029-538-200300-
SOUTHEAST PLAINS
  
CITY           SKY/WX    TMP DP  RH WIND       PRES   REMARKS
ROSWELL        FAIR      90  53  28 N6        30.01S                  
ARTESIA        FAIR      95  52  23 NE5       30.01R                  
CARLSBAD       FAIR      92  50  23 SE5       29.96R                  
HOBBS          FAIR      91  48  22 SE12      30.03R                  


$$